Ashland, WI

3:50 AM CDT on March 27, 2017 (GMT -0500)
Kennedy Memorial

Weather History for KASX - February, 2014

Change the Weather History Date:

Tuesday, February 18, 2014

  Actual Average Record
Temperature  
Mean Temperature 26 °F -  
Max Temperature 42 °F 30 °F 55 °F (1981)
Min Temperature 10 °F 11 °F -32 °F (1979)
Degree Days  
Heating Degree Days 39    
Moisture  
Dew Point 20 °F    
Average Humidity 75    
Maximum Humidity 92    
Minimum Humidity 51    
Precipitation  
Precipitation 0.00 in - - ()
Sea Level Pressure  
Sea Level Pressure 29.64 in    
Wind  
Wind Speed 7 mph (SW)    
Max Wind Speed 15 mph    
Max Gust Speed -    
Visibility 8 miles    
Events      
Averages and records for this station are not official NWS values.
T = Trace of Precipitation, MM = Missing Value Source: NWS Daily Summary

Daily Weather History Graph

Daily Weather History Graph

Search for Another Location

Airport or City:

Trip Planner

Search our weather history database for the weather conditions in past years. The results will help you decide how hot, cold, wet, or windy it might be!

Date:

Astronomy

Feb. 18, 2014 Rise Set
Actual Time 7:02 AM CST 5:33 PM CST
Civil Twilight 6:31 AM CST 6:04 PM CST
Nautical Twilight 5:56 AM CST 6:39 PM CST
Astronomical Twilight 5:21 AM CST 7:14 PM CST
Moon 9:44 PM CST (2/18) 8:19 AM CST (2/18)
Length of Visible Light 11h 32m
Length of Day
10h 31m
Waning Gibbous, 87% of the Moon is Illuminated
Feb 18
Waning Gibbous
Feb 22
Last Quarter
Mar 1
New
Mar 8
First Quarter
Mar 16
Full

Hourly Weather History & Observations

Time (CST) Temp. Windchill Dew Point Humidity Pressure Visibility Wind Dir Wind Speed Gust Speed Precip Events Conditions
12:03 AM 17.1 °F 8.7 °F 14.0 °F 88% 29.72 in 6.0 mi SW 5.8 mph - N/A   Mostly Cloudy
12:53 AM 21.0 °F 10.6 °F 19.0 °F 92% 29.77 in 7.0 mi SW 9.2 mph - N/A   Overcast
1:05 AM 21.9 °F 12.5 °F 19.0 °F 89% 29.72 in 7.0 mi SSW 8.1 mph - N/A   Overcast
1:53 AM 23.0 °F 13.1 °F 19.0 °F 85% 29.75 in 7.0 mi SSW 9.2 mph - N/A   Overcast
2:46 AM 21.9 °F 14.5 °F 18.0 °F 85% 29.70 in 6.0 mi South 5.8 mph - N/A   Scattered Clouds
2:53 AM 21.9 °F 17.2 °F 18.0 °F 85% 29.74 in 6.0 mi South 3.5 mph - N/A   Scattered Clouds
3:53 AM 21.9 °F 15.7 °F 19.0 °F 89% 29.71 in 6.0 mi South 4.6 mph - N/A   Overcast
4:53 AM 23.0 °F 15.8 °F 19.0 °F 85% 29.68 in 7.0 mi South 5.8 mph - N/A   Mostly Cloudy
5:53 AM 16.0 °F 10.4 °F 14.0 °F 92% 29.65 in 5.0 mi South 3.5 mph - N/A   Clear
6:53 AM 10.9 °F - 7.0 °F 84% 29.63 in 4.0 mi Calm Calm - N/A   Clear
7:07 AM 10.0 °F - 7.0 °F 87% 29.58 in 2.0 mi Calm Calm - N/A   Clear
7:26 AM 10.0 °F 0.4 °F 8.1 °F 92% 29.58 in 3.0 mi SSW 5.8 mph - N/A   Clear
7:53 AM 19.0 °F 8.2 °F 16.0 °F 88% 29.62 in 6.0 mi SSW 9.2 mph - N/A   Clear
8:53 AM 28.9 °F 21.9 °F 21.0 °F 72% 29.60 in 10.0 mi SSW 6.9 mph - N/A   Clear
9:53 AM 30.9 °F 24.3 °F 21.0 °F 67% 29.60 in 10.0 mi WSW 6.9 mph - N/A   Clear
10:53 AM 34.0 °F 24.2 °F 21.9 °F 61% 29.59 in 10.0 mi SSW 15.0 mph - N/A   Clear
11:53 AM 36.0 °F 29.0 °F 23.0 °F 59% 29.57 in 10.0 mi SSW 9.2 mph - N/A   Clear
12:53 PM 37.9 °F 30.5 °F 23.0 °F 55% 29.55 in 10.0 mi SSW 11.5 mph - N/A   Clear
1:53 PM 39.9 °F 33.9 °F 24.1 °F 53% 29.55 in 10.0 mi SSW 9.2 mph - N/A   Scattered Clouds
2:53 PM 41.0 °F 35.8 °F 25.0 °F 53% 29.55 in 10.0 mi SW 8.1 mph - N/A   Overcast
3:53 PM 42.1 °F 38.4 °F 25.0 °F 51% 29.57 in 10.0 mi West 5.8 mph - N/A   Overcast
4:53 PM 39.9 °F 34.5 °F 26.1 °F 58% 29.57 in 10.0 mi West 8.1 mph - N/A   Scattered Clouds
5:53 PM 33.1 °F 27.7 °F 25.0 °F 72% 29.61 in 10.0 mi West 5.8 mph - N/A   Clear
6:53 PM 34.0 °F 27.2 °F 24.1 °F 67% 29.62 in 10.0 mi West 8.1 mph - N/A   Clear
7:53 PM 30.0 °F 24.1 °F 21.9 °F 72% 29.63 in 10.0 mi West 5.8 mph - N/A   Clear
8:53 PM 30.0 °F 23.2 °F 23.0 °F 75% 29.65 in 10.0 mi WSW 6.9 mph - N/A   Clear
9:53 PM 30.9 °F 23.5 °F 23.0 °F 72% 29.65 in 10.0 mi SW 8.1 mph - N/A   Clear
10:53 PM 30.9 °F 22.2 °F 23.0 °F 72% 29.65 in 10.0 mi WSW 10.4 mph - N/A   Clear
11:53 PM 28.0 °F 19.3 °F 21.0 °F 75% 29.66 in 10.0 mi WSW 9.2 mph - N/A   Clear